TimeEDT,TemperatureF,Dew PointF,Humidity,Sea Level PressureIn,VisibilityMPH,Wind Direction,Wind SpeedMPH,Gust SpeedMPH,PrecipitationIn,Events,Conditions,WindDirDegrees,DateUTC
12:54 AM,72.0,64.9,78,29.99,10.0,South,9.2,-,N/A,,Mostly Cloudy,190,2013-11-01 04:54:00
1:54 AM,72.0,64.9,78,29.98,10.0,SSW,6.9,-,N/A,,Overcast,200,2013-11-01 05:54:00
2:54 AM,73.0,64.0,73,29.94,10.0,SSW,9.2,-,N/A,,Overcast,200,2013-11-01 06:54:00
3:54 AM,73.9,64.9,73,29.93,10.0,SSW,11.5,-,N/A,,Overcast,210,2013-11-01 07:54:00
4:17 AM,69.8,66.2,88,29.93,4.0,SW,11.5,20.7,0.01,Rain,Rain,220,2013-11-01 08:17:00
4:36 AM,69.8,66.2,88,29.91,10.0,South,10.4,20.7,0.03,,Overcast,180,2013-11-01 08:36:00
4:54 AM,69.1,66.0,90,29.89,10.0,South,10.4,18.4,0.03,Rain,Light Rain,170,2013-11-01 08:54:00
5:54 AM,69.1,66.0,90,29.88,10.0,South,9.2,-,N/A,,Mostly Cloudy,180,2013-11-01 09:54:00
6:54 AM,70.0,66.9,90,29.87,10.0,South,10.4,19.6,N/A,,Clear,190,2013-11-01 10:54:00
7:54 AM,71.1,68.0,90,29.87,10.0,SSW,8.1,-,N/A,,Clear,200,2013-11-01 11:54:00
8:54 AM,72.0,68.0,87,29.89,10.0,SSW,10.4,17.3,N/A,,Partly Cloudy,200,2013-11-01 12:54:00
9:54 AM,73.9,68.0,82,29.90,10.0,SSW,9.2,-,N/A,,Clear,210,2013-11-01 13:54:00
10:54 AM,75.0,68.0,79,29.88,10.0,SSW,11.5,-,N/A,,Clear,200,2013-11-01 14:54:00
11:54 AM,77.0,69.1,76,29.87,10.0,SW,13.8,19.6,N/A,,Clear,230,2013-11-01 15:54:00
12:54 PM,77.0,69.1,76,29.84,10.0,SSW,11.5,19.6,N/A,,Clear,210,2013-11-01 16:54:00
1:54 PM,78.1,70.0,76,29.81,10.0,SSW,10.4,19.6,N/A,,Clear,210,2013-11-01 17:54:00
2:54 PM,80.1,69.1,69,29.78,10.0,SSW,11.5,-,N/A,,Clear,210,2013-11-01 18:54:00
3:54 PM,79.0,69.1,72,29.77,10.0,SSW,8.1,-,N/A,,Clear,210,2013-11-01 19:54:00
4:54 PM,78.1,70.0,76,29.76,10.0,South,6.9,-,N/A,,Clear,180,2013-11-01 20:54:00
5:54 PM,75.9,70.0,82,29.75,10.0,South,5.8,-,N/A,,Clear,180,2013-11-01 21:54:00
6:54 PM,73.9,69.1,85,29.77,10.0,South,8.1,-,N/A,,Partly Cloudy,190,2013-11-01 22:54:00
7:54 PM,73.0,68.0,84,29.79,10.0,South,8.1,-,0.01,Rain,Light Rain,190,2013-11-01 23:54:00
8:54 PM,72.0,69.1,91,29.78,10.0,South,5.8,-,0.04,Rain,Light Rain,180,2013-11-02 00:54:00
9:54 PM,72.0,69.1,91,29.78,10.0,South,8.1,-,0.00,,Overcast,190,2013-11-02 01:54:00
10:54 PM,72.0,69.1,91,29.78,10.0,SSW,6.9,-,0.01,,Overcast,200,2013-11-02 02:54:00
11:54 PM,72.0,69.1,91,29.76,10.0,SSW,4.6,-,0.00,Rain,Light Rain,200,2013-11-02 03:54:00